Showing default

ICEYE-X25, 56963

Orbit data source: Space-Track

ICEYE-X25, 56963 is a payload satellite owned by ICEYE (FI) in SSO that was launched on Mon, 12 Jun 2023 UTC via an FALCON 9 launch vehicle from the Air Force Western Test Range (AFWTR). Payload-class satellites include a variety of spacecraft equipped with specific instruments for various scientific and technological missions. These include communications satellites like Starlink; space stations such as the ISS; scientific satellites like the Hubble; Earth observation satellites from companies like Planet Labs, Umbra, and HawkEye 360; GPS; miniature CubeSats for education and research; and military/defense satellites.

Loading next visibility...
Identifier
56963, 2023-084AH
Orbit
SSO
Country
Flag of FIFI / FIN
Related business
Manufacturer
ICEYE
Mission
Operational Commercial Radar Imaging
Bus & Motor
ICEYE, Unknown motor
Mass
90 kg wet, 89 kg dry
Launch date (UTC)
2023-06-12 (3 years ago)
Launch vehicle
FALCON 9
Launch site
Air Force Western Test Range (AFWTR)
Object type
Payload
Rocket body
Debris
Shape & HBR
Box + 1 Pan, 2.4 m
Radar Cross Section
0.825 m², Medium (>0.1 m² and < 1m²)

Expand to show TLE details & history
Last TLE update: 7 hours ago

TLE from 7 hours ago
0 ICEYE-X25
1 56963U 23084AH  26063.16602668  .00076637  00000-0  13104-2 0  9998
2 56963  97.5761 202.9833 0003906 300.8681  59.2186 15.51005364151645
Epoch: 2026-03-04T03:59Z
TLE epoch observation values (Epoch: 2026-03-04T03:59:04.705Z)
Latitude
0.00001°
Longitude
-18.72094°
Altitude
415.56 km
Speed
7.662 km/s
True Right ascension
13h 31m 55s
True Declination
0° 00' 00"
Sunlit
Object was in full shadow at epoch
Visualization orbit readout
Latitude
Unknown
Longitude
Unknown
Altitude
Unknown
Speed
Unknown
Apparent Right ascension
Unknown
Apparent Declination
Unknown
Sunlit
N/A
Visualization observer readout
Local Sidereal Time
15:06:00
Azimuth
Unknown
Elevation
Unknown
Doppler factor
Unknown
Orbital elements
Apogee altitude
413.373 km
Perigee altitude
408.07 km
Semi-major axis
6,788.859 km
Eccentricity
0.00039
Inclination
97.5761°
RAAN
202.9833°
Arg. of periapsis
300.8681°
True anomaly
59.25706°
Mean anomaly
59.2186°
Eccentric anomaly
59.23783°
Mean motion
3.88015 °/min
Orbital period
92.78 mins
BSTAR
0.0013104
Loading maneuver chart data...
Computing Atmospheric mass density...
Loading historical data...
Loading historical data...
Loading historical data...
Loading historical data...
Loading historical data...
Loading historical data...
Loading historical data...

Documentation

Showing up to 5 results
|